Shannon, Ireland

3:06 AM IST on May 27, 2018 (GMT +0100)
Shannon

Weather History for EINN - November, 2013

Change the Weather History Date:

Sunday, November 17, 2013

  Actual Average Record
Temperature  
Mean Temperature 51 °F -  
Max Temperature 54 °F 49 °F 60 °F (1997)
Min Temperature 48 °F 39 °F 23 °F (2002)
Degree Days  
Heating Degree Days 14    
Growing Degree Days 1 (Base 50)    
Moisture  
Dew Point 51 °F    
Average Humidity 97    
Maximum Humidity 100    
Minimum Humidity 90    
Precipitation  
Precipitation 0.12 in 0.13 in - ()
Sea Level Pressure  
Sea Level Pressure 30.19 in    
Wind  
Wind Speed 6 mph ()    
Max Wind Speed 12 mph    
Max Gust Speed -    
Visibility 5.2 miles    
Events Rain    
Averages and records for this station are not official NWS values.
T = Trace of Precipitation, MM = Missing Value Source: Averaged Metar Reports

Daily Weather History Graph

Daily Weather History Graph

Search for Another Location

Airport or City:

Astronomy

Nov. 17, 2013 Rise Set
Actual Time 8:01 AM GMT 4:38 PM GMT
Civil Twilight 7:23 AM GMT 5:17 PM GMT
Nautical Twilight 6:41 AM GMT 5:59 PM GMT
Astronomical Twilight 6:00 AM GMT 6:39 PM GMT
Moon 4:47 PM GMT (11/17) 7:40 AM GMT (11/17)
Length of Visible Light 9h 53m
Length of Day
8h 36m
Full, 100% of the Moon is Illuminated
Nov 17
Full
Nov 17
Full
Nov 25
Last Quarter
Dec 3
New
Dec 9
First Quarter

Hourly Weather History & Observations

Time (GMT) Temp. Dew Point Humidity Pressure Visibility Wind Dir Wind Speed Gust Speed Precip Events Conditions
12:00 AM 51 °F 50 °F 94% 30.40 in 12 mi ESE 4.5 mph - -   Partly Cloudy
12:00 AM 50.0 °F 50.0 °F 100% 30.39 in 6.2 mi ESE 3.5 mph - N/A   Overcast
12:30 AM 50.0 °F 50.0 °F 100% 30.39 in 6.2 mi ESE 5.8 mph - N/A   Overcast
1:00 AM 50.0 °F 50.0 °F 100% 30.36 in 6.2 mi ESE 4.6 mph - N/A   Mostly Cloudy
1:30 AM 50.0 °F 50.0 °F 100% 30.36 in 6.2 mi SE 3.5 mph - N/A   Mostly Cloudy
2:00 AM 50.0 °F 50.0 °F 100% 30.36 in 6.2 mi ESE 4.6 mph - N/A   Overcast
2:30 AM 50.0 °F 50.0 °F 100% 30.36 in 6.2 mi ESE 4.6 mph - N/A   Overcast
3:00 AM 50.0 °F 50.0 °F 100% 30.33 in 6.2 mi ESE 6.9 mph - N/A   Overcast
3:30 AM 50.0 °F 50.0 °F 100% 30.33 in 6.2 mi ESE 6.9 mph - N/A   Overcast
4:00 AM 50.0 °F 50.0 °F 100% 30.33 in 5.0 mi ESE 6.9 mph - N/A   Light Drizzle
4:30 AM 50.0 °F 50.0 °F 100% 30.33 in 4.3 mi ESE 6.9 mph - N/A   Light Drizzle
5:00 AM 51.8 °F 51.8 °F 100% 30.30 in 3.1 mi ESE 5.8 mph - N/A   Light Drizzle
5:30 AM 51.8 °F 50.0 °F 94% 30.30 in 3.1 mi ESE 5.8 mph - N/A   Light Drizzle
6:00 AM 50 °F 50 °F 99% 30.30 in 5 mi ESE 6.7 mph - - Rain Light Drizzle
6:00 AM 50.0 °F 50.0 °F 100% 30.30 in 5.0 mi ESE 6.9 mph - N/A   Overcast
6:30 AM 51.8 °F 50.0 °F 94% 30.27 in 6.2 mi ESE 5.8 mph - N/A   Overcast
7:00 AM 51.8 °F 51.8 °F 100% 30.27 in 6.2 mi SSE 5.8 mph - N/A   Overcast
7:30 AM 51.8 °F 51.8 °F 100% 30.27 in 6.2 mi South 8.1 mph - N/A   Light Drizzle
8:00 AM 51.8 °F 51.8 °F 100% 30.27 in 6.2 mi South 8.1 mph - N/A   Mostly Cloudy
8:30 AM 51.8 °F 51.8 °F 100% 30.27 in 6.2 mi South 8.1 mph - N/A   Light Drizzle
9:00 AM 51.8 °F 51.8 °F 100% 30.27 in 6.2 mi South 8.1 mph - N/A   Light Drizzle
9:30 AM 51.8 °F 51.8 °F 100% 30.24 in 6.2 mi South 9.2 mph - N/A   Light Drizzle
10:00 AM 53.6 °F 51.8 °F 94% 30.24 in 6.2 mi South 8.1 mph - N/A   Mostly Cloudy
10:30 AM 53.6 °F 51.8 °F 94% 30.24 in 6.2 mi South 6.9 mph - N/A   Mostly Cloudy
11:00 AM 53.6 °F 51.8 °F 94% 30.21 in 6.2 mi South 8.1 mph - N/A   Light Drizzle
11:30 AM 53.6 °F 51.8 °F 94% 30.21 in 6.2 mi South 6.9 mph - N/A   Light Drizzle
12:00 PM 54 °F 52 °F 90% 30.22 in 7 mi SSW 8.9 mph - - Rain Light Rain
12:00 PM 53.6 °F 51.8 °F 94% 30.21 in 6.2 mi South 8.1 mph - N/A Rain Light Rain
12:30 PM 53.6 °F 51.8 °F 94% 30.18 in 5.0 mi South 5.8 mph - N/A Rain Light Rain
1:00 PM 53.6 °F 51.8 °F 94% 30.18 in 3.7 mi SSE 8.1 mph - N/A Rain Light Rain
1:30 PM 53.6 °F 53.6 °F 100% 30.15 in 6.2 mi SSE 6.9 mph - N/A   Mostly Cloudy
2:00 PM 55.4 °F 53.6 °F 94% 30.15 in 6.2 mi SSE 6.9 mph - N/A   Light Drizzle
2:30 PM 53.6 °F 53.6 °F 100% 30.12 in 6.2 mi South 5.8 mph - N/A Rain Light Rain
3:00 PM 53.6 °F 51.8 °F 94% 30.12 in 6.2 mi South 6.9 mph - N/A   Mostly Cloudy
3:30 PM 53.6 °F 51.8 °F 94% 30.09 in 6.2 mi South 4.6 mph - N/A   Mostly Cloudy
4:00 PM 53.6 °F 51.8 °F 94% 30.09 in 6.2 mi South 5.8 mph - N/A   Mostly Cloudy
4:30 PM 53.6 °F 51.8 °F 94% 30.09 in 4.3 mi SSW 6.9 mph - N/A   Light Drizzle
5:00 PM 53.6 °F 51.8 °F 94% 30.06 in 4.3 mi SSW 8.1 mph - N/A   Light Drizzle
5:30 PM 53.6 °F 51.8 °F 94% 30.06 in 5.6 mi South 8.1 mph - N/A   Light Drizzle
6:00 PM 53 °F 52 °F 94% 30.07 in 9 mi South 8.9 mph - - Rain Light Rain
6:00 PM 53.6 °F 51.8 °F 94% 30.06 in 6.2 mi South 9.2 mph - N/A Rain Light Rain
6:30 PM 51.8 °F 51.8 °F 100% 30.06 in 3.7 mi SSE 6.9 mph - N/A Rain Light Rain
7:00 PM 51.8 °F 51.8 °F 100% 30.04 in 5.0 mi SSE 6.9 mph - N/A   Light Drizzle
7:30 PM 51.8 °F 51.8 °F 100% 30.04 in 2.5 mi South 6.9 mph - N/A Rain Light Rain
8:00 PM 51.8 °F 51.8 °F 100% 30.04 in 1.9 mi South 5.8 mph - N/A Rain Light Rain
8:30 PM 51.8 °F 51.8 °F 100% 30.04 in 1.9 mi SSW 6.9 mph - N/A   Light Drizzle
9:00 PM 51.8 °F 51.8 °F 100% 30.01 in 1.6 mi SSW 6.9 mph - N/A Rain Light Rain
9:30 PM 51.8 °F 50.0 °F 94% 30.01 in 1.6 mi NNW 11.5 mph - N/A Rain Light Rain
10:00 PM 48.2 °F 48.2 °F 100% 30.01 in 1.9 mi NNW 9.2 mph - N/A Rain Light Rain
10:30 PM 48.2 °F 48.2 °F 100% 30.01 in 3.1 mi NNW 5.8 mph - N/A Rain Light Rain
11:00 PM 48.2 °F 48.2 °F 100% 30.01 in 2.2 mi NW 8.1 mph - N/A Rain Light Rain
11:30 PM 48.2 °F 46.4 °F 93% 30.01 in 2.5 mi NNW 11.5 mph - N/A   Light Drizzle